Location: Bourg-d�Oueil
(42.8588°N, 0.4991°E)
Time: 18:16:17
(UTC+00:00)

SL-08 R/B - Pass Details

Date: 16 June 2021
Orbit: 943 x 1008 km, 82.9° (Epoch: 22 July)

Event Time Altitude Azimuth Distance (km) Brightness Sun altitude
Rises 21:56:50 0° 352° (N) 3,741 8.8 -18.0°
Reaches altitude 10° 21:59:24 10° 354° (N) 2,781 7.9 -18.3°
Maximum altitude 22:05:48 82° 83° (E) 1,006 4.5 -18.8°
Enters shadow 22:09:02 31° 167° (SSE) 1,649 5.1 -19.1°
